�������l�o���
Date,Time,MP-1(��Sv/h),MP-2(��Sv/h),MP-3(��Sv/h),MP-4(��Sv/h),MP-5(��Sv/h),MP-6(��Sv/h),MP-7(��Sv/h),MP-8(��Sv/h),����,����(m/s),���J
2020/12/09,00:00,0.670,0.963,0.612,1.214,0.854,0.382,0.677,0.636,���k��,6.6,��
2020/12/09,00:10,0.670,0.964,0.612,1.214,0.855,0.383,0.677,0.634,���k��,6.9,��
2020/12/09,00:20,0.670,0.964,0.612,1.216,0.856,0.381,0.676,0.635,�k��,5.5,��
2020/12/09,00:30,0.671,0.964,0.611,1.216,0.855,0.383,0.677,0.636,���k��,6.9,��
2020/12/09,00:40,0.672,0.963,0.612,1.213,0.855,0.382,0.676,0.634,���k��,6.7,��
2020/12/09,00:50,0.670,0.964,0.612,1.215,0.856,0.382,0.675,0.635,���k��,6.7,��
2020/12/09,01:00,0.673,0.962,0.612,1.215,0.855,0.382,0.675,0.635,���k��,6.6,��
2020/12/09,01:10,0.670,0.964,0.612,1.216,0.854,0.383,0.675,0.633,�k��,5.8,��
2020/12/09,01:20,0.672,0.964,0.613,1.213,0.854,0.382,0.676,0.636,���k��,5.8,��
2020/12/09,01:30,0.671,0.963,0.610,1.214,0.855,0.383,0.676,0.634,���k��,6.2,��
2020/12/09,01:40,0.671,0.964,0.613,1.216,0.855,0.383,0.676,0.637,���k��,6.1,��
2020/12/09,01:50,0.673,0.964,0.614,1.215,0.856,0.381,0.677,0.635,���k��,7.4,��
2020/12/09,02:00,0.671,0.962,0.613,1.215,0.856,0.383,0.676,0.634,���k��,7.8,��
2020/12/09,02:10,0.670,0.962,0.612,1.215,0.855,0.382,0.677,0.637,���k��,6.8,��
2020/12/09,02:20,0.672,0.964,0.612,1.213,0.855,0.382,0.676,0.635,���k��,5.6,��
2020/12/09,02:30,0.670,0.964,0.612,1.213,0.854,0.384,0.676,0.635,���k��,6.4,��
2020/12/09,02:40,0.671,0.966,0.610,1.214,0.856,0.381,0.676,0.635,���k��,5.7,��
2020/12/09,02:50,0.670,0.963,0.611,1.215,0.856,0.381,0.675,0.636,�k��,5.0,��
2020/12/09,03:00,0.670,0.961,0.613,1.215,0.855,0.383,0.677,0.635,���k��,6.6,��
2020/12/09,03:10,0.670,0.963,0.611,1.214,0.854,0.382,0.675,0.635,���k��,8.2,��
2020/12/09,03:20,0.668,0.966,0.611,1.216,0.854,0.383,0.676,0.636,���k��,8.8,��
2020/12/09,03:30,0.671,0.966,0.611,1.212,0.854,0.383,0.675,0.637,���k��,8.4,��
2020/12/09,03:40,0.671,0.963,0.612,1.213,0.856,0.381,0.677,0.634,���k��,7.8,��
2020/12/09,03:50,0.670,0.964,0.612,1.216,0.856,0.383,0.676,0.635,���k��,7.3,��
2020/12/09,04:00,0.670,0.966,0.611,1.215,0.855,0.383,0.677,0.635,���k��,7.3,��
2020/12/09,04:10,0.671,0.965,0.612,1.213,0.854,0.382,0.676,0.635,���k��,7.7,��
2020/12/09,04:20,0.670,0.964,0.612,1.216,0.854,0.382,0.676,0.636,���k��,7.7,��
2020/12/09,04:30,0.669,0.964,0.611,1.214,0.854,0.382,0.676,0.635,���k��,7.1,��
2020/12/09,04:40,0.671,0.964,0.613,1.215,0.856,0.380,0.675,0.634,��,6.1,��
2020/12/09,04:50,0.670,0.962,0.612,1.216,0.855,0.383,0.675,0.637,���k��,6.1,��
2020/12/09,05:00,0.670,0.963,0.611,1.215,0.854,0.382,0.676,0.635,���k��,6.4,��
2020/12/09,05:10,0.671,0.963,0.610,1.213,0.854,0.382,0.677,0.633,���k��,5.3,��
2020/12/09,05:20,0.671,0.963,0.610,1.214,0.856,0.382,0.675,0.636,���k��,4.0,��
2020/12/09,05:30,0.669,0.962,0.611,1.211,0.854,0.383,0.675,0.635,���k��,4.7,��
2020/12/09,05:40,0.669,0.963,0.612,1.214,0.855,0.382,0.676,0.635,���k��,5.9,��
2020/12/09,05:50,0.670,0.963,0.610,1.215,0.855,0.382,0.677,0.636,���k��,6.2,��
2020/12/09,06:00,0.670,0.962,0.609,1.214,0.853,0.382,0.675,0.635,���k��,4.2,��
2020/12/09,06:10,0.670,0.961,0.612,1.215,0.857,0.381,0.674,0.634,���k��,2.6,��
2020/12/09,06:20,0.670,0.965,0.612,1.215,0.853,0.383,0.675,0.636,���k��,2.8,��
2020/12/09,06:30,0.671,0.961,0.610,1.213,0.854,0.381,0.675,0.635,���k��,2.9,��
2020/12/09,06:40,0.670,0.962,0.611,1.213,0.854,0.382,0.675,0.635,���k��,3.6,��
2020/12/09,06:50,0.670,0.961,0.610,1.215,0.854,0.381,0.673,0.637,��,3.8,��
2020/12/09,07:00,0.670,0.962,0.612,1.213,0.854,0.382,0.676,0.636,��,4.0,��
2020/12/09,07:10,0.670,0.961,0.612,1.214,0.854,0.382,0.674,0.637,��,3.8,��
2020/12/09,07:20,0.669,0.963,0.609,1.213,0.855,0.382,0.675,0.636,���쐼,3.3,��
2020/12/09,07:30,0.671,0.961,0.611,1.214,0.855,0.382,0.676,0.635,���쐼,3.4,��
2020/12/09,07:40,0.670,0.963,0.611,1.215,0.853,0.381,0.676,0.635,��,3.3,��
2020/12/09,07:50,0.670,0.962,0.611,1.214,0.856,0.380,0.674,0.634,��,4.4,��
2020/12/09,08:00,0.670,0.960,0.611,1.215,0.854,0.382,0.676,0.636,��,4.6,��
2020/12/09,08:10,0.668,0.959,0.611,1.212,0.855,0.381,0.675,0.636,��,4.5,��
2020/12/09,08:20,0.669,0.959,0.614,1.213,0.854,0.383,0.674,0.636,��,4.2,��
2020/12/09,08:30,0.670,0.959,0.613,1.214,0.854,0.381,0.676,0.636,���쐼,3.6,��
2020/12/09,08:40,0.670,0.964,0.611,1.212,0.855,0.380,0.673,0.635,���쐼,2.9,��
2020/12/09,08:50,0.670,0.960,0.612,1.211,0.853,0.381,0.674,0.635,���쐼,2.8,��
2020/12/09,09:00,0.669,0.960,0.611,1.212,0.854,0.381,0.674,0.634,���쐼,3.2,��
2020/12/09,09:10,0.670,0.958,0.611,1.216,0.854,0.383,0.676,0.636,���k��,2.9,��
2020/12/09,09:20,0.671,0.960,0.614,1.215,0.853,0.383,0.676,0.635,���k��,4.0,��
2020/12/09,09:30,0.672,0.958,0.612,1.217,0.855,0.384,0.676,0.634,���k��,3.4,��
2020/12/09,09:40,0.673,0.959,0.611,1.213,0.855,0.382,0.674,0.637,���k��,5.3,��
2020/12/09,09:50,0.672,0.955,0.612,1.213,0.855,0.383,0.673,0.634,�k��,6.1,��
2020/12/09,10:00,0.674,0.960,0.611,1.215,0.855,0.382,0.673,0.636,�k��,4.7,��
2020/12/09,10:10,0.672,0.954,0.611,1.216,0.855,0.382,0.671,0.636,�k��,3.7,��
2020/12/09,10:20,0.671,0.957,0.612,1.215,0.855,0.383,0.675,0.637,�k��,5.7,��
2020/12/09,10:30,-,0.957,0.612,1.215,0.855,0.382,0.675,0.636,���k��,4.0,��
2020/12/09,10:40,-,0.954,0.614,1.215,0.854,0.383,0.675,0.637,���k��,5.1,��
2020/12/09,10:50,-,0.959,0.613,1.214,0.855,0.384,0.675,0.637,��,6.0,��
2020/12/09,11:00,-,0.960,0.612,1.216,0.855,0.384,0.676,0.637,���k��,5.5,��
2020/12/09,11:10,-,0.956,0.613,1.215,0.855,0.383,0.676,0.636,���k��,5.6,��
2020/12/09,11:20,-,0.953,0.612,1.216,0.856,0.383,0.676,0.637,���k��,5.7,��
2020/12/09,11:30,-,0.959,0.613,1.214,0.857,0.383,0.675,0.636,�k��,5.5,��
2020/12/09,11:40,-,0.955,0.612,1.215,0.856,0.383,0.676,0.637,�k��,4.6,��
2020/12/09,11:50,-,0.957,0.614,1.215,0.856,0.383,0.675,0.637,���k��,4.0,��
2020/12/09,12:00,-,0.957,0.613,1.217,0.858,0.384,0.676,0.636,���k��,3.1,��
2020/12/09,12:10,-,0.955,0.613,1.216,0.857,0.384,0.678,0.635,���쐼,3.6,��
2020/12/09,12:20,-,0.960,0.613,1.216,0.855,0.382,0.677,0.637,��쐼,3.0,��
2020/12/09,12:30,-,0.964,0.614,1.217,0.857,0.384,0.678,0.637,��쐼,3.5,��
2020/12/09,12:40,-,0.960,0.615,1.216,0.859,0.382,0.679,0.637,��,3.8,��
2020/12/09,12:50,-,0.962,0.614,1.218,0.857,0.383,0.679,0.637,��,3.0,��
2020/12/09,13:00,-,0.961,0.613,1.217,0.858,0.384,0.679,0.635,��쓌,3.0,��
2020/12/09,13:10,-,0.961,0.613,1.217,0.858,0.383,0.679,0.635,�쓌,3.5,��
2020/12/09,13:20,-,0.961,0.612,1.216,0.857,0.384,0.678,0.633,��쓌,5.3,��
2020/12/09,13:30,-,0.957,0.613,1.216,0.858,0.384,0.678,0.634,�쓌,3.2,��
2020/12/09,13:40,-,0.962,0.613,1.215,0.858,0.384,0.679,0.634,��쓌,2.0,��
2020/12/09,13:50,-,0.959,0.613,1.217,0.858,0.383,0.678,0.634,��,2.3,��
2020/12/09,14:00,-,0.961,0.612,1.217,0.859,0.384,0.677,0.634,��,2.6,��
2020/12/09,14:10,-,0.959,0.614,1.218,0.857,0.384,0.679,0.634,���쐼,3.2,��
2020/12/09,14:20,0.670,0.958,0.612,1.216,0.856,0.384,0.678,0.634,��,4.2,��
2020/12/09,14:30,0.669,0.960,0.613,1.216,0.858,0.384,0.679,0.634,��,4.0,��
2020/12/09,14:40,0.670,0.961,0.615,1.217,0.857,0.383,0.677,0.634,���k��,4.9,��
2020/12/09,14:50,0.671,0.965,0.614,1.216,0.857,0.384,0.678,0.636,�k��,5.0,��
2020/12/09,15:00,0.671,0.963,0.616,1.211,0.859,0.385,0.677,0.637,�k��,4.1,��
2020/12/09,15:10,0.673,0.964,0.612,1.216,0.857,0.384,0.677,0.637,�k��,3.5,��
2020/12/09,15:20,0.673,0.964,0.614,1.216,0.859,0.384,0.678,0.636,�k�k��,3.4,��
2020/12/09,15:30,0.671,0.966,0.614,1.216,0.857,0.384,0.677,0.637,�k�k��,2.8,��
2020/12/09,15:40,0.673,0.966,0.613,1.215,0.857,0.384,0.677,0.636,�k��,1.5,��
2020/12/09,15:50,0.672,0.964,0.613,1.215,0.855,0.382,0.678,0.636,���k��,1.5,��
2020/12/09,16:00,0.672,0.966,0.614,1.218,0.854,0.384,0.678,0.637,���k��,2.6,��
2020/12/09,16:10,0.673,0.964,0.616,1.216,0.856,0.384,0.677,0.637,���k��,2.3,��
2020/12/09,16:20,0.674,0.963,0.613,1.216,0.855,0.385,0.679,0.637,�k,2.3,��
2020/12/09,16:30,0.674,0.966,0.613,1.215,0.855,0.383,0.678,0.635,���k��,1.4,��
2020/12/09,16:40,0.674,0.965,0.611,1.215,0.857,0.384,0.678,0.635,��,1.5,��
2020/12/09,16:50,0.672,0.965,0.612,1.214,0.858,0.385,0.676,0.635,���k��,0.9,��
2020/12/09,17:00,0.672,0.964,0.613,1.216,0.855,0.384,0.676,0.636,���k��,0.9,��
2020/12/09,17:10,0.674,0.967,0.613,1.214,0.856,0.383,0.677,0.635,�k��,1.2,��
2020/12/09,17:20,0.672,0.964,0.612,1.214,0.855,0.383,0.675,0.635,�k�k��,1.9,��
2020/12/09,17:30,0.675,0.965,0.613,1.217,0.856,0.383,0.675,0.636,�k,3.0,��
2020/12/09,17:40,0.673,0.963,0.613,1.216,0.856,0.384,0.676,0.635,�k,2.6,��
2020/12/09,17:50,0.674,0.966,0.613,1.214,0.856,0.383,0.675,0.634,�k,3.0,��
2020/12/09,18:00,0.671,0.967,0.613,1.217,0.857,0.383,0.677,0.634,�k�k��,2.8,��
2020/12/09,18:10,0.671,0.963,0.612,1.217,0.858,0.385,0.675,0.636,�k,3.1,��
2020/12/09,18:20,0.673,0.964,0.614,1.215,0.858,0.383,0.676,0.634,�k�k��,2.8,��
2020/12/09,18:30,0.671,0.964,0.613,1.216,0.859,0.382,0.676,0.635,�k��,3.3,��
2020/12/09,18:40,0.671,0.962,0.613,1.215,0.856,0.383,0.675,0.636,�k��,4.0,��
2020/12/09,18:50,0.671,0.965,0.612,1.216,0.856,0.383,0.675,0.636,�k��,4.7,��
2020/12/09,19:00,0.671,0.964,0.611,1.215,0.858,0.383,0.674,0.636,�k��,4.3,��
2020/12/09,19:10,0.672,0.965,0.612,1.216,0.857,0.383,0.676,0.636,�k��,4.2,��
2020/12/09,19:20,0.672,0.966,0.612,1.215,0.857,0.381,0.674,0.634,�k��,4.6,��
2020/12/09,19:30,0.670,0.966,0.613,1.217,0.857,0.382,0.675,0.636,�k��,4.1,��
2020/12/09,19:40,0.671,0.965,0.613,1.217,0.858,0.383,0.674,0.635,�k��,4.5,��
2020/12/09,19:50,0.672,0.965,0.612,1.216,0.859,0.385,0.675,0.638,�k��,4.9,��
2020/12/09,20:00,0.671,0.966,0.611,1.217,0.857,0.383,0.675,0.635,�k��,3.4,��
2020/12/09,20:10,0.672,0.965,0.612,1.215,0.856,0.383,0.676,0.635,���k��,2.9,��
2020/12/09,20:20,0.670,0.964,0.612,1.215,0.857,0.383,0.672,0.636,��,2.6,��
2020/12/09,20:30,0.671,0.966,0.613,1.215,0.857,0.382,0.675,0.635,��,3.0,��
2020/12/09,20:40,0.671,0.966,0.613,1.215,0.857,0.383,0.674,0.634,��,3.3,��
2020/12/09,20:50,0.672,0.965,0.612,1.216,0.858,0.382,0.675,0.635,��,2.6,��
2020/12/09,21:00,0.671,0.966,0.612,1.217,0.855,0.382,0.676,0.636,���k��,3.4,��
2020/12/09,21:10,0.671,0.964,0.612,1.216,0.856,0.383,0.676,0.636,���k��,3.4,��
2020/12/09,21:20,0.672,0.966,0.611,1.217,0.859,0.381,0.675,0.635,���k��,3.4,��
2020/12/09,21:30,0.672,0.964,0.613,1.215,0.857,0.382,0.673,0.634,��,2.3,��
2020/12/09,21:40,0.669,0.966,0.611,1.216,0.859,0.383,0.675,0.636,�쐼,2.8,��
2020/12/09,21:50,0.670,0.965,0.613,1.215,0.857,0.382,0.674,0.636,�쐼,2.6,��
2020/12/09,22:00,0.672,0.964,0.612,1.216,0.858,0.382,0.674,0.635,���쐼,2.6,��
2020/12/09,22:10,0.671,0.963,0.613,1.215,0.856,0.383,0.673,0.637,�쐼,2.5,��
2020/12/09,22:20,0.671,0.965,0.612,1.216,0.855,0.382,0.674,0.635,��쐼,2.2,��
2020/12/09,22:30,0.671,0.964,0.613,1.216,0.858,0.382,0.675,0.636,�쐼,1.7,��
2020/12/09,22:40,0.672,0.965,0.611,1.215,0.856,0.384,0.676,0.636,�쐼,1.5,��
2020/12/09,22:50,0.671,0.964,0.611,1.216,0.855,0.382,0.674,0.636,��쐼,1.5,��
2020/12/09,23:00,0.671,0.964,0.611,1.215,0.856,0.382,0.674,0.635,�쐼,1.4,��
2020/12/09,23:10,0.672,0.965,0.612,1.216,0.857,0.382,0.675,0.634,�k��,0.6,��
2020/12/09,23:20,0.669,0.966,0.612,1.217,0.857,0.382,0.674,0.635,��,1.5,��
2020/12/09,23:30,0.671,0.968,0.612,1.217,0.856,0.383,0.675,0.635,��,2.2,��
2020/12/09,23:40,0.671,0.965,0.612,1.215,0.856,0.383,0.674,0.634,��,2.3,��
2020/12/09,23:50,0.671,0.964,0.613,1.217,0.855,0.382,0.673,0.634,�쐼,1.5,��
